Date String (YYYY-MM-DD hh:mm:ss) UTC,Instrument flags,absolute air pressure of the measurement (hPa),sample flow rate (lpm),inlet stack bypass flow (lpm),air temperature of the measurement (°C),ambient temperature measured by the external sensor (°C),aerosol sample conditioner tube jacket temperature (°C),OPC LED temperature (°C),internal box temperature (°C),relative humidity of the measurement (%),span deviation,mass concentration of particles derived from Lorenz-Mie calculation of OPC scattering (μg/m³),mass concentration of particles derived from Lorenz-Mie calculation of OPC scattering (μg/m³),mass concentration of particles derived from Lorenz-Mie calculation of OPC scattering (μg/m³)
DateTimeUTC,F1_M11,P_M11,Q1_M11,Q2_M11,T1_M11,T2_M11,T3_M11,T4_M11,T5_M11,U1_M11,ZSPAN_M11,X2_M11,X0_M11,X1_M11
2023-11-22 06:00:00,SystemResetWarning,0836.4,5.00,000.00,022.3,021.4,000.0,030.7,023.5,10.3,0000.0,0000.79,0001.09,0000.63
2023-11-22 06:01:00,SystemResetWarning,0836.4,5.00,000.00,022.3,021.4,000.0,030.7,023.5,10.3,0000.0,0000.82,0001.19,0000.64
2023-11-22 06:02:00,SystemResetWarning,0836.4,5.00,000.00,022.3,021.4,000.0,030.7,023.6,10.3,0000.0,0000.82,0001.23,0000.64
2023-11-22 06:03:00,SystemResetWarning,0836.4,4.99,000.00,022.3,021.4,000.0,030.7,023.5,10.3,0000.0,0000.86,0001.36,0000.63
2023-11-22 06:04:00,SystemResetWarning,0836.4,5.00,000.00,022.3,021.4,000.0,030.7,023.5,10.3,0000.0,0000.88,0001.41,0000.63
2023-11-22 06:05:00,SystemResetWarning,0836.3,5.00,000.00,022.3,021.4,000.0,030.7,023.5,10.3,0000.0,0000.87,0001.40,0000.62
2023-11-22 06:06:00,SystemResetWarning,0836.3,5.00,000.00,022.3,021.4,000.0,030.7,023.5,10.3,0000.0,0000.86,0001.38,0000.63
2023-11-22 06:07:00,SystemResetWarning,0836.2,5.00,000.00,022.3,021.4,000.0,030.7,023.5,10.4,0000.0,0000.85,0001.39,0000.62
2023-11-22 06:08:00,SystemResetWarning,0836.3,5.00,000.00,022.3,021.4,000.0,030.7,023.5,10.4,0000.0,0000.86,0001.41,0000.63
2023-11-22 06:09:00,SystemResetWarning,0836.3,5.00,000.00,022.3,021.4,000.0,030.7,023.5,10.3,0000.0,0000.85,0001.38,0000.63
2023-11-22 06:10:00,SystemResetWarning,0836.3,5.01,000.00,022.3,021.4,000.0,030.7,023.4,10.3,0000.0,0000.80,0001.28,0000.61
2023-11-22 06:11:00,SystemResetWarning,0836.2,5.00,000.00,022.3,021.4,000.0,030.7,023.5,10.2,0000.0,0000.76,0001.17,0000.60
2023-11-22 06:12:00,SystemResetWarning,0836.2,5.00,000.00,022.3,021.4,000.0,030.7,023.5,10.2,0000.0,0000.74,0001.12,0000.59
2023-11-22 06:13:00,SystemResetWarning,0836.2,5.00,000.00,022.3,021.4,000.0,030.7,023.5,10.3,0000.0,0000.74,0001.16,0000.59
2023-11-22 06:14:00,SystemResetWarning,0836.2,4.99,000.00,022.3,021.4,000.0,030.7,023.4,10.3,0000.0,0000.69,0001.02,0000.59
2023-11-22 06:15:00,SystemResetWarning,0836.2,5.00,000.00,022.3,021.4,000.0,030.7,023.4,10.4,0000.0,0000.65,0000.91,0000.58
2023-11-22 06:16:00,SystemResetWarning,0836.2,5.00,000.00,022.3,021.4,000.0,030.7,023.4,10.3,0000.0,0000.66,0000.94,0000.58
2023-11-22 06:17:00,SystemResetWarning,0836.2,5.00,000.00,022.2,021.4,000.0,030.6,023.4,10.3,0000.0,0000.66,0000.95,0000.58
2023-11-22 06:18:00,SystemResetWarning,0836.2,5.00,000.00,022.2,021.4,000.0,030.6,023.4,10.3,0000.0,0000.68,0001.01,0000.57
2023-11-22 06:19:00,SystemResetWarning,0836.2,5.01,000.00,022.2,021.4,000.0,030.6,023.5,10.3,0000.0,0000.68,0001.01,0000.56
2023-11-22 06:20:00,SystemResetWarning,0836.2,5.00,000.00,022.2,021.4,000.0,030.6,023.5,10.4,0000.0,0000.66,0001.00,0000.55
2023-11-22 06:21:00,SystemResetWarning,0836.2,5.00,000.00,022.2,021.4,000.0,030.6,023.4,10.3,0000.0,0000.66,0001.01,0000.54
2023-11-22 06:22:00,SystemResetWarning,0836.2,5.00,000.00,022.2,021.3,000.0,030.6,023.4,10.4,0000.0,0000.66,0001.05,0000.53
2023-11-22 06:23:00,SystemResetWarning,0836.2,4.99,000.00,022.2,021.3,000.0,030.6,023.4,10.3,0000.0,0000.65,0001.04,0000.53
2023-11-22 06:24:00,SystemResetWarning,0836.2,4.99,000.00,022.2,021.3,000.0,030.6,023.5,10.4,0000.0,0000.63,0000.94,0000.53
2023-11-22 06:25:00,SystemResetWarning,0836.2,5.00,000.00,022.2,021.3,000.0,030.6,023.4,10.5,0000.0,0000.63,0000.90,0000.52
2023-11-22 06:26:00,SystemResetWarning,0836.2,5.01,000.00,022.2,021.3,000.0,030.6,023.4,10.4,0000.0,0000.64,0000.92,0000.52
2023-11-22 06:27:00,SystemResetWarning,0836.2,5.01,000.00,022.2,021.3,000.0,030.6,023.4,10.4,0000.0,0000.62,0000.89,0000.51
2023-11-22 06:28:00,SystemResetWarning,0836.2,5.00,000.00,022.2,021.2,000.0,030.6,023.4,10.4,0000.0,0000.63,0000.93,0000.50
2023-11-22 06:29:00,SystemResetWarning,0836.2,5.01,000.00,022.2,021.3,000.0,030.6,023.4,10.4,0000.0,0000.59,0000.83,0000.49
2023-11-22 06:30:00,SystemResetWarning,0836.1,5.00,000.00,022.2,021.3,000.0,030.6,023.4,10.4,0000.0,0000.59,0000.81,0000.49
2023-11-22 06:31:00,SystemResetWarning,0836.1,5.00,000.00,022.2,021.3,000.0,030.6,023.3,10.4,0000.0,0000.60,0000.87,0000.50
2023-11-22 06:32:00,SystemResetWarning,0836.1,4.99,000.00,022.2,021.3,000.0,030.6,023.4,10.4,0000.0,0000.61,0000.94,0000.51
2023-11-22 06:33:00,SystemResetWarning,0836.1,5.00,000.00,022.2,021.3,000.0,030.6,023.4,10.4,0000.0,0000.60,0000.99,0000.51
2023-11-22 06:34:00,SystemResetWarning,0836.1,5.01,000.00,022.2,021.3,000.0,030.6,023.4,10.4,0000.0,0000.60,0001.02,0000.51
2023-11-22 06:35:00,SystemResetWarning,0836.1,5.00,000.00,022.2,021.2,000.0,030.6,023.4,10.4,0000.0,0000.61,0001.06,0000.51
2023-11-22 06:36:00,SystemResetWarning,0836.1,4.99,000.00,022.1,021.2,000.0,030.6,023.4,10.4,0000.0,0000.60,0001.06,0000.50
2023-11-22 06:37:00,SystemResetWarning,0836.1,5.00,000.00,022.1,021.2,000.0,030.5,023.4,10.3,0000.0,0000.60,0001.06,0000.50
2023-11-22 06:38:00,SystemResetWarning,0836.2,5.00,000.00,022.1,021.2,000.0,030.5,023.4,10.3,0000.0,0000.60,0001.05,0000.50
2023-11-22 06:39:00,SystemResetWarning,0836.1,5.00,000.00,022.1,021.2,000.0,030.5,023.4,10.4,0000.0,0000.59,0001.01,0000.50
2023-11-22 06:40:00,SystemResetWarning,0836.1,4.99,000.00,022.1,021.2,000.0,030.5,023.4,10.4,0000.0,0000.59,0001.00,0000.51
2023-11-22 06:41:00,SystemResetWarning,0836.1,4.99,000.00,022.1,021.2,000.0,030.5,023.4,10.4,0000.0,0000.59,0001.02,0000.51
2023-11-22 06:42:00,SystemResetWarning,0836.0,5.00,000.00,022.1,021.2,000.0,030.5,023.4,10.4,0000.0,0000.57,0000.98,0000.50
2023-11-22 06:43:00,SystemResetWarning,0835.9,5.00,000.00,022.1,021.2,000.0,030.5,023.3,10.4,0000.0,0000.57,0000.90,0000.50
2023-11-22 06:44:00,SystemResetWarning,0835.9,5.00,000.00,022.1,021.2,000.0,030.5,023.3,10.4,0000.0,0000.57,0000.83,0000.50
2023-11-22 06:45:00,SystemResetWarning,0836.0,5.00,000.00,022.1,021.2,000.0,030.5,023.3,10.4,0000.0,0000.57,0000.76,0000.50
2023-11-22 06:46:00,SystemResetWarning,0835.9,5.01,000.00,022.1,021.2,000.0,030.5,023.2,10.4,0000.0,0000.55,0000.72,0000.49
2023-11-22 06:47:00,SystemResetWarning,0835.9,4.99,000.00,022.1,021.2,000.0,030.5,023.2,10.4,0000.0,0000.56,0000.74,0000.50
2023-11-22 06:48:00,SystemResetWarning,0835.9,4.99,000.00,022.1,021.2,000.0,030.5,023.3,10.4,0000.0,0000.56,0000.73,0000.49
2023-11-22 06:49:00,SystemResetWarning,0835.9,4.99,000.00,022.1,021.2,000.0,030.5,023.3,10.4,0000.0,0000.56,0000.73,0000.50
2023-11-22 06:50:00,SystemResetWarning,0835.9,4.99,000.00,022.1,021.2,000.0,030.5,023.3,10.4,0000.0,0000.56,0000.73,0000.50
2023-11-22 06:51:00,SystemResetWarning,0835.9,5.00,000.00,022.1,021.2,000.0,030.5,023.3,10.4,0000.0,0000.56,0000.73,0000.49
2023-11-22 06:52:00,SystemResetWarning,0835.8,5.01,000.00,022.1,021.2,000.0,030.5,023.3,10.5,0000.0,0000.55,0000.74,0000.48
2023-11-22 06:53:00,SystemResetWarning,0835.8,5.01,000.00,022.1,021.2,000.0,030.5,023.3,10.5,0000.0,0000.55,0000.75,0000.48
2023-11-22 06:54:00,SystemResetWarning,0835.8,5.00,000.00,022.1,021.2,000.0,030.5,023.3,10.5,0000.0,0000.55,0000.74,0000.48
2023-11-22 06:55:00,SystemResetWarning,0835.8,5.00,000.00,022.1,021.1,000.0,030.4,023.3,10.6,0000.0,0000.54,0000.71,0000.48
2023-11-22 06:56:00,SystemResetWarning,0835.8,5.00,000.00,022.0,021.1,000.0,030.4,023.2,10.6,0000.0,0000.53,0000.71,0000.47
2023-11-22 06:57:00,SystemResetWarning,0835.7,5.00,000.00,022.0,021.1,000.0,030.4,023.2,10.6,0000.0,0000.54,0000.73,0000.48
2023-11-22 06:58:00,SystemResetWarning,0835.7,4.99,000.00,022.0,021.1,000.0,030.4,023.3,10.6,0000.0,0000.55,0000.75,0000.48
2023-11-22 06:59:00,SystemResetWarning,0835.7,4.99,000.00,022.0,021.1,000.0,030.4,023.3,10.6,0000.0,0000.55,0000.74,0000.47
